Flag for U.S.A. Weather past 2 weeks in St. Paul, Minnesota, U.S.A.

Now
38 °F

Light snow. Mostly cloudy.


Feels Like: 28 °F
Forecast: 35 / 41 °F
Wind: 17 mph from Northwest

Location: St. Paul Downtown Holman Field

Current Time: Apr 21, 2015 at 10:56:29 AM

Latest Report: Apr 21, 2015 at 9:53 AM


Visibility: 8 mi

Pressure: 29.57 "Hg

Humidity: 65%

Dew point: 27 °F

Location of St. PaulLocation

Historic Weather in St. Paul — Graph

°F

St. Paul temperature yesterday

Maximum temperature yesterday: 45 °F (at 12:53 AM)
Minimum temperature yesterday: 37 °F (at 8:53 AM)
Average temperature yesterday: 40 °F

Past Weeks' High & Low Weather Summary

 TemperatureHumidityPressure
High75 °F (Apr 12, 3:53 PM)100% (Apr 10, 2:53 AM)30.28 "Hg (Apr 10, 2:53 AM)
Low30 °F (Apr 10, 3:53 AM)14% (Apr 15, 3:53 PM)29.50 "Hg (Apr 20, 5:53 AM)
Average50 °F60%29.94 "Hg
* Reported Apr 6 8:53 AM — Apr 21 8:53 AM, St. Paul, Weather by CustomWeather, © 2015

Note: Actual official high and low records may vary slightly from our data, if they occured in-between our weather recording intervals... More about our weather records

Advertising

St. Paul weather history for previous 24 hours

 ConditionsComfort  
Time TempWeatherWind HumidityBarometerVisibility
8:53 AM
Tue, Apr 21
37 °FMostly cloudy.21 mph62%29.57 "Hg10 mi
7:53 AM36 °FPartly sunny.16 mph62%29.57 "Hg10 mi
6:53 AM34 °FMostly cloudy.17 mph64%29.57 "Hg10 mi
5:53 AM35 °FOvercast.25 mph64%29.55 "Hg10 mi
4:53 AM36 °FOvercast.16 mph64%29.54 "Hg10 mi
3:53 AM36 °FOvercast.21 mph67%29.53 "Hg10 mi
2:53 AM36 °FOvercast.20 mph64%29.53 "Hg10 mi
1:53 AM36 °FMostly cloudy.14 mph75%29.55 "Hg10 mi
12:53 AM35 °FMostly cloudy.14 mph82%29.56 "Hg10 mi
11:53 PM
Mon, Apr 20
37 °FMostly cloudy.16 mph73%29.55 "Hg10 mi
11:03 PM37 °FLight rain. Mostly cloudy.20 mph82%29.54 "Hg10 mi
9:53 PM38 °FMostly cloudy.17 mph79%29.55 "Hg10 mi
8:53 PM40 °FMore clouds than sun.15 mph68%29.55 "Hg10 mi
7:53 PM40 °FCloudy.16 mph65%29.54 "Hg10 mi
6:53 PM42 °FMostly cloudy.18 mph55%29.53 "Hg10 mi
5:53 PM42 °FOvercast.17 mph51%29.53 "Hg10 mi
4:53 PM41 °FOvercast.23 mph53%29.54 "Hg10 mi
3:53 PM43 °FOvercast.20 mph51%29.52 "Hg10 mi
2:53 PM43 °FMostly cloudy.14 mph53%29.52 "Hg10 mi
1:53 PM42 °FOvercast.16 mph53%29.52 "Hg10 mi
12:53 PM40 °FOvercast.23 mph58%29.53 "Hg10 mi
11:53 AM39 °FOvercast.20 mph62%29.53 "Hg10 mi
10:53 AM38 °FOvercast.23 mph68%29.53 "Hg10 mi
Weather by CustomWeather, © 2015

See weather overviewHow to use our weather pages